Regional Weather Roundup
Issued by NWS

Home | Current Version | Previous Version | Text Only | Print | Product List | Glossary Off
Versions: 1 2 3 4 5 6 7 8 9 10 11 12 13 14 15 16 17 18 19 20 21 22 23 24 25 26 27 28 29 30 31 32 33 34 35 36 37 38 39 40 41 42 43 44 45 46 47 48 49 50

000
ASUS45 KTFX 211719
RWRMT
MONTANA HOURLY WEATHER ROUNDUP
NATIONAL WEATHER SERVICE GREAT FALLS MT
1019 AM MST SUN DEC 21 2014

NOTE: "FAIR" INDICATES FEW OR NO CLOUDS BELOW 12000 FEET WITH NO
SIGNIFICANT WEATHER AND/OR OBSTRUCTIONS TO VISIBILITY.

* THESE STATIONS ARE NOT UNDER NWS QUALITY CONTROL. THEY DO NOT
   REPORT WEATHER SUCH AS PRECIPITATION OR FOG.

MTZ001>007-043-211800-
WEST OF THE DIVIDE
CITY           SKY/WX    TMP DP  RH WIND       PRES   REMARKS
KALISPELL      CLOUDY    37  36  96 S10       29.51R WCI  30
MISSOULA       LGT RAIN  34  34 100 NW8       29.63S WCI  27
BUTTE          LGT RAIN  34  32  92 CALM      29.58R
MULLAN PASS    PTSUNNY  N/A N/A N/A N/A       29.62R
* ESSEX        N/A       33  32  96 N/A        N/A
* EUREKA APT   CLOUDY    45  34  65 S5        29.50R
* HAMILTON APT CLOUDY    43  32  65 S6        29.66R
* LIBBY APT    PTSUNNY   36  36 100 CALM      29.60R
* LINCOLN      N/A       35  33  92 S5G13      N/A   WCI  31
* POLSON       N/A       35  35 100 E2         N/A
* RONAN APT    PTCLDY    39  36  89 N/A        N/A
* SEELEY LAKE  N/A       34  32  92 S5         N/A   WCI  29
* THOMP F APT  PTSUNNY   28  27  96 NE1        N/A
* YAAK HILL    N/A       37  35  92 N1         N/A
$$

MTZ008-052>055-211800-
SOUTHWEST MONTANA
CITY           SKY/WX    TMP DP  RH WIND       PRES   REMARKS
BOZEMAN        CLOUDY    39  30  70 N/A       29.54R
DILLON         CLOUDY    39  30  70 W21G28    29.60R WCI  29
* W YELLOWSTON CLOUDY    29  27  92 SW5G13     N/A   WCI  24
* THREE FORKS  PTSUNNY   45  45 100 W13        N/A
* BOULDER HILL N/A       33  30  89 SW6G12     N/A   WCI  27
* MONIDA PASS  N/A       28  28 100 SE8G16     N/A   WCI  20
* RAYNOLDS PAS N/A       29  12  49 SE10G16    N/A   WCI  20
* WHITEHALL    N/A       41  35  79 SW12G26    N/A
* WISE RIVER   N/A       36  31  82 NW11G16    N/A   WCI  28
$$

MTZ009>010-012-014-046-048-049-054-211800-
EAST SLOPES AND CENTRAL MONTANA
CITY           SKY/WX    TMP DP  RH WIND       PRES   REMARKS
CUT BANK       PTSUNNY   39  30  70 W20       29.29R WCI  29
GREAT FALLS    PTSUNNY   45  30  56 W22G32    29.36R
HELENA         PTCLDY    45  32  60 W18G30    29.49R
MALMSTROM AFB  PTSUNNY   45  32  60 SW24G32   29.38R
* CONRAD       PTSUNNY   41  34  76 CALM       N/A
* DEARBORN     N/A       46  32  58 NE2G11     N/A
* EAST GLACIER N/A       36  30  79 S10G17     N/A   WCI  29
* MONARCH      N/A       39  23  53 SW16G33    N/A   WCI  30
* PENDROY      N/A       38  29  70 W31G39     N/A   WCI  26
* ROGERS PASS  N/A       32  32 100 E9G24      N/A   WCI  24
* SWEET GRASS  N/A       39  28  65 W24G29     N/A   WCI  28
* WHITE SULPH  N/A       39  29  67 W4G14      N/A
$$

MTZ011-013-016-021-035-040-045-047-050-051-211800-
NORTH CENTRAL MONTANA
CITY           SKY/WX    TMP DP  RH WIND       PRES   REMARKS
HAVRE          CLOUDY    39  34  82 W9        29.29R WCI  33
LEWISTOWN      CLOUDY    43  30  60 W15       29.37R
* N BAR RANCH  PTSUNNY   45  28  51 W24G47    29.35R
* CHINOOK      PTSUNNY   28  25  89 E8        29.30R WCI  20
* CHESTER      N/A       32  28  85 N/A        N/A
* DENTON       N/A       44  30  58 W25G32     N/A
* GEYSER       N/A       44  27  51 SW29G34    N/A
* JUDITH GAP   N/A       40  31  70 NW4G13     N/A
* LOMA         N/A       46  33  61 SW12G19    N/A
$$

MTZ017>020-022>027-061-062-211800-
NORTHEAST MONTANA
CITY           SKY/WX    TMP DP  RH WIND       PRES   REMARKS
GLASGOW        CLOUDY    28  25  89 SE8       29.35R WCI  20
GLENDIVE       CLOUDY    34  28  79 S7        29.40F WCI  28
JORDAN         CLOUDY    34  30  85 NW6       29.34F WCI  29
SIDNEY         CLOUDY    28  25  89 CALM      29.43F
WOLF POINT     CLOUDY    25  21  85 E8        29.38F WCI  16
* BEAVER HILL  N/A       39  24  55 S12        N/A   WCI  32
* CIRCLE       N/A       36  29  76 SW7        N/A   WCI  30
* LINDSAY DVD  N/A       30  26  85 E6         N/A   WCI  24
* PLENTYWOOD A PTCLDY    27  23  85 SE7       29.39F WCI  19
* POPLAR APT   PTCLDY    30  25  82 E5        29.38F WCI  25
* SACO         N/A       27  24  88 N/A        N/A
$$

MTZ028>042-056>058-211800-
SOUTHCENTRAL AND SOUTHEAST MONTANA
CITY           SKY/WX    TMP DP  RH WIND       PRES   REMARKS
BAKER          CLOUDY    30  28  92 E7        29.42F WCI  23
BILLINGS       CLOUDY    41  27  58 SW17      29.42S
LIVINGSTON     CLOUDY    43 N/A N/A SW18G26   29.51R
MILES CITY     N/A       32  27  82 S12       29.40F WCI  23
* FORSYTH APT  PTSUNNY   43  36  76 CALM      29.38S
* LAUREL APT   CLOUDY    39  19  45 SW8        N/A   WCI  33
* ROUNDUP APT  CLOUDY    36  25  64 S8         N/A   WCI  30
* ALZADA       N/A       37  28  70 E3         N/A
* HYSHAM       N/A       40  27  60 W8         N/A   WCI  35
* LAME DEER    N/A       36  32  85 SW7        N/A   WCI  30
* REED POINT   N/A       34  32  92 NE2        N/A
* ROSCOE HILL  N/A       47  17  30 W11G23     N/A
$$

REGIONAL REPORTS...DAKOTAS
CITY           SKY/WX    TMP DP  RH WIND       PRES   REMARKS
WILLISTON      CLOUDY    25  21  85 CALM      29.42F
DICKINSON      PTCLDY    34  27  76 S14       29.41F WCI  24
BEACH          CLOUDY    32  28  85 S12       29.42F WCI  23
CROSBY         SUNNY     30  27  89 S8        29.43F WCI  22
TIOGA          PTSUNNY   25  25 100 SE8       29.46F WCI  16
WATFORD CITY   PTSUNNY   27  25  92 SE8       29.42S WCI  19
BISMARCK       PTCLDY    28  27  96 SE7       29.54F WCI  21
GRAND FORKS    CLOUDY    30  28  92 S17       29.68S WCI  18
FARGO          FOG       34  28  79 S14G24    29.69F VSB 3    WCI  24
BUFFALO SD     PTCLDY    34  27  76 SE7       29.38F WCI  28
RAPID CITY     PTCLDY    32  27  82 SW6       29.47F WCI  26
$$

REGIONAL REPORTS...WYOMING/IDAHO/WASHINGTON
CITY           SKY/WX    TMP DP  RH WIND       PRES   REMARKS
GILLETTE       CLOUDY    39  27  62 SW15      29.45R WCI  31
SHERIDAN       CLOUDY    37  25  62 S5        29.44F WCI  33
CODY           PTSUNNY   45  30  56 W20G32    29.48F
YELLOWSTONE LA PTSUNNY   28  25  89 W7        29.65R WCI  21
SALMON         CLOUDY    36  34  92 N3        29.69R
MULLAN PASS    PTSUNNY  N/A N/A N/A N/A       29.62S
SAND POINT     PTCLDY    41  37  86 SW8       29.64R
SPOKANE        PTSUNNY   43  36  76 W20       29.69R
$$

REGIONAL REPORTS...ALBERTA
CITY           SKY/WX    TMP DP  RH WIND       PRES   REMARKS
CALGARY        PTSUNNY   37  21  52 N12       29.28R WCI  29
LETHBRIDGE     PTSUNNY   41  30  65 W30G39    29.26R
MEDICINE HAT   PTSUNNY   37  32  82 SW14      29.23R WCI  28
EDMONTON       PTSUNNY   21  16  81 W3        29.32R
WATERTON GATE  N/A       39  30  70 SW20G29    N/A   WCI  29
CARDSTON       N/A       41  30  65 W17G25     N/A
MILK RIVER     N/A       34  28  79 W9         N/A   WCI  27
$$

REGIONAL REPORTS...SASKATCHEWAN
CITY           SKY/WX    TMP DP  RH WIND       PRES   REMARKS
SWIFT CURRENT  SUNNY     27  21  78 S13       29.26S WCI  16
REGINA         SUNNY     18  16  92 SE14      29.40F WCI   4
VAL MARIE      N/A       30  27  89 SE5        N/A   WCI  25
ASSINIBOIA     N/A       27  21  78 SE8        N/A   WCI  19
CORONACH       N/A       23  21  92 SE5        N/A   WCI  16

$$




USA.gov is the U.S. government's official web portal to all federal, state and local government web resources and services.